This demonstration page uses our WeatherBlox Daily Observations layout. Learn more.

Hourly Observations for February 2, 2020

Temp ( °F °C ) Dew Point ( °F °C ) Humidity (%) Winds ( mph kmh ) Pressure ( in mb ) Visibility ( mi km ) Precip ( " mm )
12:15 am 00:15 Clear 42 5.6 28 -2 58 58 W 13 20 29.89 1012 10 16.0934 0 0
12:35 am 00:35 Clear 42 5.5 28 -2.2 58 58 W 12 19 29.89 1012 10 16.0934 0 0
12:55 am 00:55 Clear 42 5.5 28 -2.3 58 58 W 14 22 29.89 1012 10 16.0934 0 0
1:15 am 01:15 Clear 43 6 28 -2.4 55 55 W 13 20 29.88 1012 10 16.0934 0 0
1:35 am 01:35 Clear 42 5.5 28 -2.3 58 58 W 12 19 29.88 1012 10 16.0934 0 0
1:55 am 01:55 Clear 42 5.5 28 -2.5 57 57 W 14 22 29.87 1012 10 16.0934 0 0
2:15 am 02:15 Clear 41 5.2 28 -2.5 58 58 W 12 19 29.88 1012 10 16.0934 0 0
2:35 am 02:35 Clear 41 4.9 28 -2.5 59 59 W 14 22 29.88 1012 10 16.0934 0 0
2:55 am 02:55 Clear 42 5.4 27 -2.8 56 56 W 16 26 29.87 1012 10 16.0934 0 0
3:15 am 03:15 Clear 41 4.8 27 -2.7 59 59 W 13 20 29.88 1012 10 16.0934 0 0
3:35 am 03:35 Clear 42 5.4 27 -2.7 56 56 W 15 24 29.86 1011 10 16.0934 0 0
3:55 am 03:55 Clear 44 6.7 26 -3.1 50 50 W 17 28 29.85 1011 10 16.0934 0 0
4:15 am 04:15 Clear 41 4.8 27 -2.9 58 58 W 13 20 29.87 1011 10 16.0934 0 0
4:35 am 04:35 Clear 40 4.5 27 -2.9 59 59 W 13 20 29.87 1012 10 16.0934 0 0
4:55 am 04:55 Clear 40 4.6 27 -3 58 58 W 10 17 29.87 1012 10 16.0934 0 0
5:15 am 05:15 Clear 40 4.7 27 -3 58 58 W 14 22 29.87 1012 10 16.0934 0 0
5:35 am 05:35 Clear 41 4.9 26 -3.3 56 56 W 12 19 29.86 1011 10 16.0934 0 0
5:55 am 05:55 Clear 43 6.1 26 -3.6 50 50 W 12 19 29.86 1011 10 16.0934 0 0
6:15 am 06:15 Clear 45 7.1 24 -4.5 44 44 W 12 19 29.84 1010 10 16.0934 0 0
6:35 am 06:35 Clear 42 5.4 25 -4 51 51 W 9 15 29.86 1011 10 16.0934 0 0
6:55 am 06:55 Clear 41 4.8 25 -3.7 54 54 W 10 17 29.86 1011 10 16.0934 0 0
7:15 am 07:15 Clear 40 4.5 25 -3.7 56 56 W 9 15 29.88 1012 10 16.0934 0 0
7:35 am 07:35 Clear 40 4.5 25 -3.7 56 56 W 10 17 29.88 1012 10 16.0934 0 0
7:55 am 07:55 Sunny 42 5.6 24 -4.5 49 49 W 10 17 29.86 1011 10 16.0934 0 0
8:15 am 08:15 Sunny 41 5 24 -4.2 52 52 W 8 13 29.88 1012 10 16.0934 0 0
8:35 am 08:35 Sunny 43 6 25 -3.9 49 49 W 6 9 29.87 1011 10 16.0934 0 0
8:55 am 08:55 Sunny 46 7.5 26 -3.5 46 46 W 5 7 29.86 1011 10 16.0934 0 0
9:15 am 09:15 Sunny 48 9.1 25 -3.9 40 40 WSW 5 7 29.85 1011 10 16.0934 0 0
9:35 am 09:35 Sunny 50 10 25 -4 37 37 WSW 3 6 29.83 1010 10 16.0934 0 0
9:55 am 09:55 Sunny 51 10.4 26 -3.1 39 39 W 3 6 29.83 1010 10 16.0934 0 0
10:15 am 10:15 Sunny 54 12 25 -3.8 33 33 WSW 3 6 29.81 1009 10 16.0934 0 0
10:35 am 10:35 Sunny 55 13 27 -2.6 34 34 Calm 29.79 1009 10 16.0934 0 0
10:55 am 10:55 Sunny 56 13.6 27 -3 32 32 W 3 6 29.79 1009 10 16.0934 0 0
11:15 am 11:15 Sunny 58 14.4 25 -3.7 29 29 Calm 29.77 1008 10 16.0934 0 0
11:35 am 11:35 Sunny 59 15 26 -3.4 28 28 Calm 29.78 1008 10 16.0934 0 0
11:55 am 11:55 Sunny 60 15.5 28 -2.3 30 30 Calm 29.78 1008 10 16.0934 0 0
12:15 pm 12:15 Sunny 59 15.2 27 -2.6 29 29 S 3 6 29.76 1008 10 16.0934 0 0
12:35 pm 12:35 Sunny 60 15.5 28 -2 30 30 S 6 9 29.74 1007 10 16.0934 0 0
12:55 pm 12:55 Sunny 60 15.5 30 -1.2 32 32 S 6 9 29.73 1007 10 16.0934 0 0
1:15 pm 13:15 Sunny 61 16 30 -1.1 31 31 S 8 13 29.7 1006 10 16.0934 0 0
1:35 pm 13:35 Sunny 62 16.5 29 -1.9 29 29 S 9 15 29.69 1005 10 16.0934 0 0
1:55 pm 13:55 Sunny 63 17 30 -0.9 30 30 SSE 7 11 29.67 1005 10 16.0934 0 0
2:15 pm 14:15 Sunny 64 17.5 29 -1.6 27 27 SSE 7 11 29.66 1004 10 16.0934 0 0
2:35 pm 14:35 Sunny 64 17.7 32 -0.1 30 30 SSE 8 13 29.66 1004 10 16.0934 0 0
2:55 pm 14:55 Sunny 64 18 30 -0.9 28 28 SSE 9 15 29.63 1004 10 16.0934 0 0
3:15 pm 15:15 Sunny 65 18.2 31 -0.4 29 29 SSE 8 13 29.62 1003 10 16.0934 0 0
3:35 pm 15:35 Sunny 65 18.5 30 -1.3 26 26 SE 6 9 29.62 1003 10 16.0934 0 0
3:55 pm 15:55 Sunny 65 18.1 32 0.2 30 30 ESE 8 13 29.62 1003 10 16.0934 0 0
4:15 pm 16:15 Sunny 64 17.7 35 1.4 34 34 E 12 19 29.62 1003 10 16.0934 0 0
4:35 pm 16:35 Sunny 62 16.5 36 2.1 38 38 ESE 10 17 29.62 1003 10 16.0934 0 0
4:55 pm 16:55 Sunny 60 15.5 36 2.3 41 41 E 10 17 29.62 1003 10 16.0934 0 0
5:15 pm 17:15 Sunny 59 14.8 35 1.4 40 40 E 12 19 29.62 1003 10 16.0934 0 0
5:35 pm 17:35 Sunny 57 13.8 35 1.7 44 44 E 14 22 29.62 1003 10 16.0934 0 0
5:55 pm 17:55 Sunny 54 12.3 35 1.7 49 49 E 12 19 29.63 1003 10 16.0934 0 0
6:15 pm 18:15 Clear 48 8.7 35 1.6 61 61 ENE 12 19 29.66 1005 10 16.0934 0 0
6:35 pm 18:35 Clear 47 8.1 34 1 61 61 ENE 10 17 29.68 1005 10 16.0934 0 0
6:55 pm 18:55 Clear 43 6.2 33 0.8 69 69 ENE 13 20 29.7 1006 10 16.0934 0 0
7:15 pm 19:15 Clear 47 8.4 32 -0.1 55 55 E 12 19 29.68 1005 10 16.0934 0 0
7:35 pm 19:35 Clear 48 8.8 29 -1.9 47 47 E 15 24 29.67 1005 10 16.0934 0 0
7:55 pm 19:55 Clear 44 6.4 31 -0.8 60 60 NE 10 17 29.69 1006 10 16.0934 0 0
8:15 pm 20:15 Clear 43 6.3 33 0.7 68 68 NE 16 26 29.68 1005 10 16.0934 0 0
8:35 pm 20:35 Clear 43 5.9 34 1.1 72 72 NE 16 26 29.68 1005 10 16.0934 0 0
8:55 pm 20:55 Clear 42 5.4 35 1.5 76 76 NE 15 24 29.69 1006 10 16.0934 0 0
9:15 pm 21:15 Clear 40 4.7 34 1.2 78 78 NE 18 30 29.69 1005 10 16.0934 0 0
9:35 pm 21:35 Clear 39 3.8 35 1.5 85 85 ENE 14 22 29.71 1006 10 16.0934 0 0
9:55 pm 21:55 Clear 38 3.5 35 1.5 87 87 NE 14 22 29.71 1006 10 16.0934 0 0
10:15 pm 22:15 Clear 38 3.2 35 1.5 89 89 NE 16 26 29.71 1006 10 16.0934 0 0
10:35 pm 22:35 Clear 37 2.6 34 1 89 89 NE 16 26 29.72 1006 10 16.0934 0 0
10:55 pm 22:55 Clear 36 2.2 33 0.7 90 90 ENE 16 26 29.71 1006 10 16.0934 0 0
11:15 pm 23:15 Clear 36 2.1 33 0.7 91 91 NE 23 37 29.7 1006 10 16.0934 0 0
11:35 pm 23:35 Clear 35 1.8 33 0.5 91 91 NE 22 35 29.71 1006 10 16.0934 0 0
11:55 pm 23:55 Clear 35 1.6 33 0.5 93 93 NE 20 31 29.71 1006 10 16.0934 0 0

Powered by AerisWeather